Tracking 18852 objects as of 23-Nov-2017
HD Live streaming from Space Station
objects crossing your sky now

FENGYUN 1C DEB

Track FENGYUN 1C DEB now!
10-day predictions


NORAD ID: 31465
Int'l Code: 1999-025BVD
Perigee: 803.0 km
Apogee: 987.9 km
Inclination: 98.6 °
Period: 102.7 minutes
Semi major axis: 7266 km
RCS: 0.0157 m2 (small)
Launch date: May 10, 1999
Source: People's Republic of China (PRC)
Launch site: Taiyaun Space Center, China (TSC)

Note: This is SATELLITE DEBRIS
aabbcc
Your satellite tracking list
Your tracking list is empty




NASA's NSSDC Master Catalog

Two Line Element Set (TLE):
1 31465U 99025BVD 17326.58687456 +.00001360 +00000-0 +86319-3 0  9992
2 31465 098.6275 095.1069 0127211 259.4605 099.2210 14.01574718536367
Source of the keplerian elements: AFSPC